Location: Antajasa
(13.5383°S, 72.0858°W)
Time: 01:25:46
(UTC+00:00)

Daily predictions for brighter satellites

Satellite Brightness Start Highest point End
(mag) Time Altitude Azimuth Time Altitude Azimuth Time Altitude Azimuth
Orbus 7S 2.7 00:01:27 10° WSW 00:03:59 84° NNW 00:04:07 79° NNE
CZ-4C R/B 3.0 00:01:12 10° SW 00:05:28 38° WNW 00:09:36 10° N
RESURS DK-1 3.2 00:02:15 10° SSW 00:06:15 49° WNW 00:10:13 10° N
Cosmos 2279 Rocket 4.3 00:05:18 10° SSE 00:11:09 42° E 00:11:20 41° E
Cosmos 1603 3.8 00:05:59 10° NNW 00:11:32 74° WSW 00:17:09 10° S
USA 215 3.2 00:08:03 10° SE 00:14:39 88° WSW 00:21:12 10° NW
COSMOS 2455 3.4 00:10:45 10° SSW 00:16:37 57° WNW 00:22:28 10° N
SWIFT 3.3 00:15:03 10° WSW 00:18:57 36° S 00:19:09 36° S
GPS 2-14 Rocket1 3.4 00:16:12 10° W 00:19:31 44° SSW 00:19:31 44° SSW
Cosmos 2142 Rocket 4.4 00:18:55 10° S 00:25:19 72° E 00:28:31 31° NNE
OAO 3 Copernicus 4.3 00:26:45 10° NW 00:31:22 75° NW 00:31:22 75° NW
Delta 198 4.3 00:25:45 10° W 00:31:58 61° SSW 00:32:42 56° SSE
In-Cosmos 22 4.1 00:27:06 10° N 00:32:37 87° W 00:38:20 10° S
Cosmos 2297 4.2 00:28:33 10° S 00:32:47 46° SSE 00:32:47 46° SSE
CZ-2C R/B 3.9 00:29:30 10° N 00:34:43 41° W 00:39:55 10° SSW
Atlas Centaur 2 3.9 00:31:17 10° WSW 00:36:36 24° SSW 00:38:47 19° S
GPS 2-12 Rocket1 4.3 00:34:59 10° WSW 00:38:51 37° SSW 00:38:51 37° SSW
Milstar 3 3.9 00:33:38 10° W 00:39:59 41° NNW 00:43:17 30° NNE
ARIANE 5 R/B 4.3 08:03:55 20° NE 08:03:55 20° NE 08:09:03 10° ENE
Milstar 3 Cent rocket 4.1 08:26:10 51° NW 08:30:11 81° NNE 08:53:13 10° ESE
Cosmos 2237 Rocket 3.8 08:27:53 10° S 08:32:55 32° ESE 08:37:55 10° NE
H-2A R/B 3.8 08:45:45 10° SE 08:49:29 30° E 08:53:15 10° NNE
Cosmos 1607 4.0 08:44:08 11° SSW 08:50:01 74° ESE 08:56:07 10° NNE
Meteor 2-20 Rocket 4.3 08:53:42 10° S 08:59:54 80° W 09:06:02 10° N
Meteor 1-5 Rocket 4.1 09:01:45 36° NNW 09:04:01 64° W 09:09:49 10° S
SJ 16-02 1.3 09:03:55 39° N 09:05:33 84° E 09:09:59 10° SSE
OAO 1 4.5 09:06:51 47° NW 09:08:30 86° NNE 09:14:02 10° ESE
Helios 1B 4.5 09:04:13 10° SSE 09:08:35 89° ENE 09:11:43 19° NNW
GPS 2-17 Rocket1 3.1 09:10:12 56° WSW 09:11:05 74° SSW 09:15:48 10° ESE
METEOR-M 4.0 09:08:13 10° N 09:13:33 83° W 09:18:56 10° SSW
ASTRO E2 2.9 09:14:28 49° NNW 09:14:28 49° NNW 09:18:12 10° NE
ADEOS 3.8 09:10:10 10° N 09:15:05 42° WNW 09:20:02 10° SSW
Centaur D-1AR AC-36 3.9 09:04:08 26° W 09:16:22 59° SSW 09:21:37 10° ESE
Ariane H10 3.7 09:10:14 28° WNW 09:16:53 57° NNW 09:21:08 10° ENE
Meteor 1-19 Rocket 4.0 09:11:55 10° SSW 09:17:17 63° W 09:22:38 10° N
Ariane H10 3.5 09:15:13 31° NW 09:17:32 46° N 09:30:01 10° ENE
CZ-4C R/B 2.9 09:14:27 10° S 09:18:05 77° WSW 09:19:39 32° NNW
Meteor 1-18 Rocket 4.2 09:12:46 10° SSW 09:18:17 56° W 09:23:41 10° N
GEOS 3 Rocket 3.8 09:20:29 10° NE 09:25:41 72° ESE 09:30:50 10° SSW
Cosmos 2173 Rocket 4.1 09:21:01 10° N 09:27:22 83° E 09:33:44 10° S
ALOS 2.6 09:23:03 10° N 09:27:27 42° W 09:31:54 10° SSW
GPS 2-04 Rocket1 3.4 09:27:27 19° SSW 09:29:27 39° SSE 09:32:38 10° ENE
Ariane H10+ 4.2 09:30:45 16° NNW 09:32:49 22° N 09:36:22 10° NE
Cosmos 1666 3.4 09:35:11 29° W 09:35:11 29° W 09:38:26 10° SSW
Transit 2A Rocket 4.5 09:31:07 12° NNW 09:35:18 64° WSW 09:39:36 10° SSE
Cosmos 773 Rocket 4.0 09:30:31 10° S 09:35:44 83° ESE 09:40:52 10° NNE
Aureole 1 4.1 09:32:49 10° SSW 09:35:54 57° WNW 09:38:50 10° N
CZ-4B R/B 3.4 09:34:56 10° SE 09:37:38 28° E 09:40:21 10° NNE
FENGYUN 3A 4.3 09:34:31 10° NNW 09:39:20 33° W 09:44:13 10° SW
Okean 1-7 3.5 09:36:02 10° SSW 09:40:02 37° W 09:43:58 10° NNW
Cosmos 1703 Rocket 4.1 09:36:24 10° SSW 09:40:18 32° W 09:44:10 10° NNW
ERS-2 2.1 09:40:28 10° SSE 09:44:09 89° E 09:47:48 10° NNW
ATLAS 2A CENTAUR R/B 3.6 09:41:02 12° SW 09:44:27 28° SSE 09:54:42 10° ESE
Meteor 1-31 Rocket 3.9 09:44:48 10° NNW 09:47:52 22° W 09:50:57 10° SW
Cosmos 2263 Rocket 2.6 09:48:30 10° NW 09:53:50 42° WSW 09:59:12 10° S
Cosmos 1898 Rocket 3.7 09:51:00 10° NNW 09:56:08 51° WSW 10:01:20 10° S
Cosmos 2016 Rocket 3.9 09:52:51 10° N 09:58:58 81° W 10:05:13 10° S
Cosmos 1271 Rocket 4.0 09:57:10 10° S 10:00:50 45° E 10:04:30 10° NNE
Cosmos 858 Rocket 4.5 09:57:16 10° NNW 10:02:26 67° WSW 10:07:39 10° S
Cosmos 1536 4.2 10:00:50 10° NW 10:03:45 19° W 10:06:42 10° SW
Meteor 2-4 Rocket 4.2 09:59:02 10° SSW 10:04:15 36° W 10:09:19 10° NNW
H-2A R/B 2.8 10:00:51 10° NNE 10:04:32 80° E 10:08:18 10° S
Cosmos 2061 Rocket 4.0 10:00:44 10° NNW 10:07:03 69° W 10:13:22 10° S
Cosmos 1242 Rocket 3.3 10:05:21 10° SSW 10:08:39 32° W 10:11:55 10° NNW
Cosmos 1689 Rocket 4.3 10:06:50 10° SE 10:09:28 30° E 10:12:06 10° NNE
Geosat FO 4.4 10:06:57 10° NNE 10:10:13 67° WNW 10:13:37 10° SSW
Cosmos 1908 Rocket 3.7 10:05:58 10° N 10:10:26 84° E 10:14:55 10° S
Sakura Rocket 3.4 10:08:50 10° NW 10:12:49 49° NNE 10:16:22 10° ESE
CZ-4B R/B 4.2 10:11:00 10° NW 10:13:29 17° W 10:16:01 10° SW
Cosmos 1937 Rocket 3.8 10:10:09 10° NNW 10:15:04 46° WSW 10:20:04 10° S
Cosmos 2237 Rocket 3.5 10:12:44 10° WSW 10:16:37 19° WNW 10:20:29 10° NW
